Time,TemperatureF,DewpointF,PressureIn,WindDirection,WindDirectionDegrees,WindSpeedMPH,WindSpeedGustMPH,Humidity,HourlyPrecipIn,Conditions,Clouds,dailyrainin,SoftwareType,DateUTC
2013-02-27 00:01:00,14.0,11.0,30.22,East,91,0.0,1.0,86,0.00,,,0.00,,2013-02-27 07:01:00,
2013-02-27 00:12:00,14.0,11.0,30.22,East,91,0.0,1.0,86,0.00,,,0.00,,2013-02-27 07:12:00,
2013-02-27 00:21:00,14.0,10.0,30.22,East,92,0.0,3.0,85,0.00,,,0.00,,2013-02-27 07:21:00,
2013-02-27 00:32:00,13.0,9.0,30.23,East,94,0.0,1.0,85,0.00,,,0.00,,2013-02-27 07:32:00,
2013-02-27 00:42:00,13.0,9.0,30.23,East,94,0.0,1.0,85,0.00,,,0.00,,2013-02-27 07:42:00,
2013-02-27 00:52:00,11.0,8.0,30.23,WNW,302,1.0,2.0,86,0.00,,,0.00,,2013-02-27 07:52:00,
2013-02-27 01:01:00,10.0,7.0,30.23,WNW,289,2.0,5.0,88,0.00,,,0.00,,2013-02-27 08:01:00,
2013-02-27 01:11:00,10.0,7.0,30.23,WNW,289,2.0,5.0,88,0.00,,,0.00,,2013-02-27 08:11:00,
2013-02-27 01:21:00,10.0,7.0,30.24,WNW,288,2.0,5.0,87,0.00,,,0.00,,2013-02-27 08:21:00,
2013-02-27 01:32:00,9.0,6.0,30.24,WNW,293,1.0,5.0,87,0.00,,,0.00,,2013-02-27 08:32:00,
2013-02-27 01:41:00,9.0,6.0,30.24,WNW,293,1.0,5.0,87,0.00,,,0.00,,2013-02-27 08:41:00,
2013-02-27 01:53:00,8.0,5.0,30.24,WNW,293,1.0,4.0,87,0.00,,,0.00,,2013-02-27 08:53:00,
2013-02-27 02:01:00,7.0,4.0,30.25,WNW,291,2.0,5.0,86,0.00,,,0.00,,2013-02-27 09:01:00,
2013-02-27 02:22:00,7.0,3.0,30.25,North,1,0.0,3.0,85,0.00,,,0.00,,2013-02-27 09:22:00,
2013-02-27 02:32:00,8.0,4.0,30.26,NW,309,0.0,3.0,85,0.00,,,0.00,,2013-02-27 09:32:00,
2013-02-27 02:41:00,8.0,4.0,30.26,NW,309,0.0,3.0,85,0.00,,,0.00,,2013-02-27 09:41:00,
2013-02-27 02:52:00,10.0,6.0,30.25,NW,320,0.0,1.0,83,0.00,,,0.00,,2013-02-27 09:52:00,
2013-02-27 03:01:00,9.0,5.0,30.26,WNW,302,1.0,3.0,83,0.00,,,0.00,,2013-02-27 10:01:00,
2013-02-27 03:12:00,9.0,5.0,30.26,WNW,302,1.0,3.0,83,0.00,,,0.00,,2013-02-27 10:12:00,
2013-02-27 03:22:00,7.0,3.0,30.26,WNW,293,1.0,3.0,82,0.00,,,0.00,,2013-02-27 10:22:00,
2013-02-27 03:32:00,8.0,4.0,30.26,WNW,302,0.0,2.0,83,0.00,,,0.00,,2013-02-27 10:32:00,
2013-02-27 03:42:00,8.0,4.0,30.26,WNW,302,0.0,2.0,83,0.00,,,0.00,,2013-02-27 10:42:00,
2013-02-27 03:53:00,8.0,4.0,30.27,WNW,297,3.0,5.0,83,0.00,,,0.00,,2013-02-27 10:53:00,
2013-02-27 04:12:00,7.0,3.0,30.27,WNW,300,2.0,5.0,84,0.00,,,0.00,,2013-02-27 11:12:00,
2013-02-27 04:22:00,7.0,3.0,30.28,NW,326,3.0,6.0,84,0.00,,,0.00,,2013-02-27 11:22:00,
2013-02-27 04:32:00,7.0,3.0,30.29,WNW,296,2.0,5.0,82,0.00,,,0.00,,2013-02-27 11:32:00,
2013-02-27 04:41:00,7.0,3.0,30.29,WNW,296,2.0,5.0,82,0.00,,,0.00,,2013-02-27 11:41:00,
2013-02-27 04:52:00,8.0,3.0,30.30,NW,318,2.0,4.0,81,0.00,,,0.00,,2013-02-27 11:52:00,
2013-02-27 05:02:00,8.0,2.0,30.31,WNW,302,2.0,5.0,77,0.00,,,0.00,,2013-02-27 12:02:00,
2013-02-27 05:13:00,8.0,2.0,30.31,WNW,302,2.0,5.0,77,0.00,,,0.00,,2013-02-27 12:13:00,
2013-02-27 05:22:00,8.0,3.0,30.32,ENE,65,0.0,4.0,80,0.00,,,0.00,,2013-02-27 12:22:00,
2013-02-27 05:32:00,9.0,4.0,30.33,NW,324,0.0,3.0,79,0.00,,,0.00,,2013-02-27 12:32:00,
2013-02-27 05:42:00,9.0,4.0,30.33,NW,324,0.0,3.0,79,0.00,,,0.00,,2013-02-27 12:42:00,
2013-02-27 05:52:00,10.0,4.0,30.33,SSE,155,0.0,3.0,76,0.00,,,0.00,,2013-02-27 12:52:00,
2013-02-27 06:02:00,11.0,4.0,30.34,ESE,107,1.0,3.0,74,0.00,,,0.00,,2013-02-27 13:02:00,
2013-02-27 06:11:00,11.0,4.0,30.34,ESE,107,1.0,3.0,74,0.00,,,0.00,,2013-02-27 13:11:00,
2013-02-27 06:22:00,10.0,3.0,30.34,West,276,0.0,4.0,73,0.00,,,0.00,,2013-02-27 13:22:00,
2013-02-27 06:32:00,11.0,3.0,30.35,SSE,160,2.0,3.0,70,0.00,,,0.00,,2013-02-27 13:32:00,
2013-02-27 06:42:00,11.0,3.0,30.35,SSE,160,2.0,3.0,70,0.00,,,0.00,,2013-02-27 13:42:00,
2013-02-27 06:52:00,11.0,3.0,30.35,WNW,283,2.0,4.0,69,0.00,,,0.00,,2013-02-27 13:52:00,
2013-02-27 07:02:00,11.0,3.0,30.35,NW,323,0.0,3.0,69,0.00,,,0.00,,2013-02-27 14:02:00,
2013-02-27 07:12:00,11.0,3.0,30.35,NW,323,0.0,3.0,69,0.00,,,0.00,,2013-02-27 14:12:00,
2013-02-27 07:21:00,11.0,3.0,30.36,ESE,114,1.0,3.0,70,0.00,,,0.00,,2013-02-27 14:21:00,
2013-02-27 07:32:00,11.0,3.0,30.37,ENE,65,1.0,3.0,71,0.00,,,0.00,,2013-02-27 14:32:00,
2013-02-27 07:42:00,11.0,3.0,30.37,ENE,65,1.0,3.0,71,0.00,,,0.00,,2013-02-27 14:42:00,
2013-02-27 07:52:00,11.0,3.0,30.37,ENE,65,1.0,3.0,71,0.00,,,0.00,,2013-02-27 14:52:00,
2013-02-27 08:02:00,14.0,5.0,30.38,WNW,286,2.0,8.0,67,0.00,,,0.00,,2013-02-27 15:02:00,
2013-02-27 08:12:00,14.0,5.0,30.38,WNW,286,2.0,8.0,67,0.00,,,0.00,,2013-02-27 15:12:00,
2013-02-27 08:22:00,14.0,5.0,30.38,WNW,286,2.0,8.0,67,0.00,,,0.00,,2013-02-27 15:22:00,
2013-02-27 08:32:00,15.0,5.0,30.39,WNW,285,1.0,9.0,65,0.00,,,0.00,,2013-02-27 15:32:00,
2013-02-27 08:42:00,15.0,5.0,30.39,WNW,285,1.0,9.0,65,0.00,,,0.00,,2013-02-27 15:42:00,
2013-02-27 08:52:00,17.0,6.0,30.40,WNW,291,7.0,16.0,61,0.00,,,0.00,,2013-02-27 15:52:00,
2013-02-27 09:02:00,17.0,5.0,30.40,WNW,287,7.0,16.0,59,0.00,,,0.00,,2013-02-27 16:02:00,
2013-02-27 09:12:00,17.0,5.0,30.40,WNW,287,7.0,16.0,59,0.00,,,0.00,,2013-02-27 16:12:00,
2013-02-27 09:22:00,19.0,6.0,30.40,WNW,284,2.0,9.0,57,0.00,,,0.00,,2013-02-27 16:22:00,
2013-02-27 09:32:00,20.0,5.0,30.40,West,264,4.0,13.0,51,0.00,,,0.00,,2013-02-27 16:32:00,
2013-02-27 09:42:00,20.0,5.0,30.40,West,264,4.0,13.0,51,0.00,,,0.00,,2013-02-27 16:42:00,
2013-02-27 09:52:00,20.0,5.0,30.40,West,264,4.0,13.0,51,0.00,,,0.00,,2013-02-27 16:52:00,
2013-02-27 10:02:00,21.0,6.0,30.40,West,274,6.0,13.0,51,0.00,,,0.00,,2013-02-27 17:02:00,
2013-02-27 10:11:00,21.0,6.0,30.40,West,274,6.0,13.0,51,0.00,,,0.00,,2013-02-27 17:11:00,
2013-02-27 10:21:00,21.0,4.0,30.40,West,281,7.0,15.0,47,0.00,,,0.00,,2013-02-27 17:21:00,
2013-02-27 10:32:00,21.0,4.0,30.40,West,281,7.0,15.0,47,0.00,,,0.00,,2013-02-27 17:32:00,
2013-02-27 10:42:00,21.0,4.0,30.40,West,281,7.0,15.0,47,0.00,,,0.00,,2013-02-27 17:42:00,
2013-02-27 10:52:00,22.0,3.0,30.40,WNW,290,7.0,12.0,44,0.00,,,0.00,,2013-02-27 17:52:00,
2013-02-27 11:02:00,22.0,2.0,30.39,WNW,302,7.0,14.0,42,0.00,,,0.00,,2013-02-27 18:02:00,
2013-02-27 11:11:00,22.0,2.0,30.39,WNW,302,7.0,14.0,42,0.00,,,0.00,,2013-02-27 18:11:00,
2013-02-27 11:22:00,23.0,3.0,30.40,WNW,282,3.0,8.0,42,0.00,,,0.00,,2013-02-27 18:22:00,
2013-02-27 11:32:00,23.0,5.0,30.39,WNW,301,4.0,8.0,45,0.00,,,0.00,,2013-02-27 18:32:00,
2013-02-27 11:42:00,23.0,5.0,30.39,WNW,301,4.0,8.0,45,0.00,,,0.00,,2013-02-27 18:42:00,
2013-02-27 11:51:00,23.0,4.0,30.39,WNW,300,5.0,14.0,44,0.00,,,0.00,,2013-02-27 18:51:00,
2013-02-27 12:01:00,24.0,5.0,30.38,WNW,294,8.0,17.0,44,0.00,,,0.00,,2013-02-27 19:01:00,
2013-02-27 12:12:00,24.0,5.0,30.38,WNW,294,8.0,17.0,44,0.00,,,0.00,,2013-02-27 19:12:00,
2013-02-27 12:21:00,24.0,6.0,30.38,West,264,7.0,17.0,46,0.00,,,0.00,,2013-02-27 19:21:00,
2013-02-27 12:32:00,24.0,5.0,30.38,WNW,297,8.0,17.0,43,0.00,,,0.00,,2013-02-27 19:32:00,
2013-02-27 12:42:00,24.0,5.0,30.38,WNW,297,8.0,17.0,43,0.00,,,0.00,,2013-02-27 19:42:00,
2013-02-27 12:52:00,24.0,6.0,30.38,West,264,8.0,19.0,45,0.00,,,0.00,,2013-02-27 19:52:00,
2013-02-27 13:01:00,24.0,4.0,30.38,NW,326,10.0,24.0,42,0.00,,,0.00,,2013-02-27 20:01:00,
2013-02-27 13:12:00,24.0,4.0,30.38,NW,326,10.0,24.0,42,0.00,,,0.00,,2013-02-27 20:12:00,
2013-02-27 13:21:00,24.0,2.0,30.37,WNW,287,15.0,22.0,37,0.00,,,0.00,,2013-02-27 20:21:00,
2013-02-27 13:32:00,24.0,2.0,30.37,WNW,287,15.0,22.0,37,0.00,,,0.00,,2013-02-27 20:32:00,
2013-02-27 13:42:00,24.0,2.0,30.37,WNW,287,15.0,22.0,37,0.00,,,0.00,,2013-02-27 20:42:00,
2013-02-27 13:52:00,24.0,-2.0,30.38,NW,322,14.0,24.0,32,0.00,,,0.00,,2013-02-27 20:52:00,
2013-02-27 14:02:00,24.0,-2.0,30.37,WNW,302,18.0,26.0,31,0.00,,,0.00,,2013-02-27 21:02:00,
2013-02-27 14:22:00,24.0,-2.0,30.37,NW,305,17.0,29.0,32,0.00,,,0.00,,2013-02-27 21:22:00,
2013-02-27 14:32:00,25.0,-1.0,30.36,WNW,287,7.0,15.0,32,0.00,,,0.00,,2013-02-27 21:32:00,
2013-02-27 14:42:00,25.0,-1.0,30.36,WNW,287,7.0,15.0,32,0.00,,,0.00,,2013-02-27 21:42:00,
2013-02-27 14:51:00,25.0,-1.0,30.36,WNW,290,12.0,22.0,31,0.00,,,0.00,,2013-02-27 21:51:00,
2013-02-27 15:01:00,25.0,-1.0,30.36,WNW,295,10.0,26.0,31,0.00,,,0.00,,2013-02-27 22:01:00,
2013-02-27 15:11:00,25.0,-1.0,30.36,WNW,295,10.0,26.0,31,0.00,,,0.00,,2013-02-27 22:11:00,
2013-02-27 15:21:00,25.0,-1.0,30.36,WNW,295,10.0,26.0,31,0.00,,,0.00,,2013-02-27 22:21:00,
2013-02-27 15:32:00,25.0,-1.0,30.36,NW,305,21.0,35.0,32,0.00,,,0.00,,2013-02-27 22:32:00,
2013-02-27 15:42:00,25.0,-1.0,30.36,NW,305,21.0,35.0,32,0.00,,,0.00,,2013-02-27 22:42:00,
2013-02-27 15:52:00,25.0,0.0,30.37,WSW,257,14.0,27.0,33,0.00,,,0.00,,2013-02-27 22:52:00,
2013-02-27 16:01:00,24.0,-2.0,30.37,WNW,300,12.0,28.0,32,0.00,,,0.00,,2013-02-27 23:01:00,
2013-02-27 16:11:00,24.0,-2.0,30.37,WNW,300,12.0,28.0,32,0.00,,,0.00,,2013-02-27 23:11:00,
2013-02-27 16:21:00,24.0,0.0,30.37,WNW,302,13.0,24.0,35,0.00,,,0.00,,2013-02-27 23:21:00,
2013-02-27 16:32:00,24.0,-2.0,30.37,NW,305,13.0,27.0,32,0.00,,,0.00,,2013-02-27 23:32:00,
2013-02-27 16:42:00,24.0,-2.0,30.37,NW,305,13.0,27.0,32,0.00,,,0.00,,2013-02-27 23:42:00,
2013-02-27 16:52:00,25.0,1.0,30.37,WNW,287,8.0,22.0,34,0.00,,,0.00,,2013-02-27 23:52:00,
2013-02-27 17:02:00,24.0,-2.0,30.37,WNW,283,15.0,24.0,32,0.00,,,0.00,,2013-02-28 00:02:00,
2013-02-27 17:12:00,24.0,-2.0,30.37,WNW,283,15.0,24.0,32,0.00,,,0.00,,2013-02-28 00:12:00,
2013-02-27 17:21:00,24.0,-1.0,30.37,WNW,300,9.0,23.0,33,0.00,,,0.00,,2013-02-28 00:21:00,
2013-02-27 17:32:00,23.0,-1.0,30.37,WNW,302,10.0,22.0,34,0.00,,,0.00,,2013-02-28 00:32:00,
2013-02-27 17:42:00,23.0,-1.0,30.37,WNW,302,10.0,22.0,34,0.00,,,0.00,,2013-02-28 00:42:00,
2013-02-27 17:52:00,22.0,0.0,30.37,WNW,302,12.0,19.0,37,0.00,,,0.00,,2013-02-28 00:52:00,
2013-02-27 18:01:00,22.0,0.0,30.37,WNW,302,12.0,19.0,37,0.00,,,0.00,,2013-02-28 01:01:00,
2013-02-27 18:11:00,22.0,0.0,30.37,WNW,302,12.0,19.0,37,0.00,,,0.00,,2013-02-28 01:11:00,
2013-02-27 18:21:00,20.0,0.0,30.38,East,86,4.0,10.0,40,0.00,,,0.00,,2013-02-28 01:21:00,
2013-02-27 18:32:00,19.0,0.0,30.39,NW,321,5.0,12.0,43,0.00,,,0.00,,2013-02-28 01:32:00,
2013-02-27 18:42:00,19.0,0.0,30.39,NW,321,5.0,12.0,43,0.00,,,0.00,,2013-02-28 01:42:00,
2013-02-27 18:52:00,19.0,1.0,30.39,West,273,4.0,10.0,44,0.00,,,0.00,,2013-02-28 01:52:00,
2013-02-27 19:01:00,19.0,1.0,30.39,WNW,296,12.0,24.0,45,0.00,,,0.00,,2013-02-28 02:01:00,
2013-02-27 19:11:00,19.0,1.0,30.39,WNW,296,12.0,24.0,45,0.00,,,0.00,,2013-02-28 02:11:00,
2013-02-27 19:22:00,19.0,2.0,30.40,WNW,295,8.0,18.0,46,0.00,,,0.00,,2013-02-28 02:22:00,
2013-02-27 19:32:00,18.0,0.0,30.40,WNW,300,11.0,24.0,45,0.00,,,0.00,,2013-02-28 02:32:00,
2013-02-27 19:41:00,18.0,0.0,30.40,WNW,300,11.0,24.0,45,0.00,,,0.00,,2013-02-28 02:41:00,
2013-02-27 19:51:00,18.0,0.0,30.40,WNW,300,11.0,24.0,45,0.00,,,0.00,,2013-02-28 02:51:00,
2013-02-27 20:01:00,18.0,0.0,30.40,West,270,6.0,21.0,45,0.00,,,0.00,,2013-02-28 03:01:00,
2013-02-27 20:11:00,18.0,0.0,30.40,West,270,6.0,21.0,45,0.00,,,0.00,,2013-02-28 03:11:00,
2013-02-27 20:21:00,17.0,-2.0,30.40,WNW,285,10.0,30.0,43,0.00,,,0.00,,2013-02-28 03:21:00,
2013-02-27 20:32:00,17.0,-3.0,30.40,West,276,10.0,22.0,41,0.00,,,0.00,,2013-02-28 03:32:00,
2013-02-27 20:42:00,17.0,-3.0,30.40,West,276,10.0,22.0,41,0.00,,,0.00,,2013-02-28 03:42:00,
2013-02-27 20:52:00,17.0,-5.0,30.40,WNW,298,8.0,21.0,37,0.00,,,0.00,,2013-02-28 03:52:00,
2013-02-27 21:01:00,17.0,-5.0,30.40,West,264,20.0,34.0,36,0.00,,,0.00,,2013-02-28 04:01:00,
2013-02-27 21:11:00,17.0,-5.0,30.40,West,264,20.0,34.0,36,0.00,,,0.00,,2013-02-28 04:11:00,
2013-02-27 21:21:00,17.0,-5.0,30.40,WNW,293,13.0,31.0,37,0.00,,,0.00,,2013-02-28 04:21:00,
2013-02-27 21:32:00,16.0,-5.0,30.40,NW,322,12.0,21.0,38,0.00,,,0.00,,2013-02-28 04:32:00,
2013-02-27 21:42:00,16.0,-5.0,30.40,NW,322,12.0,21.0,38,0.00,,,0.00,,2013-02-28 04:42:00,
2013-02-27 21:52:00,16.0,-5.0,30.40,WNW,295,11.0,18.0,39,0.00,,,0.00,,2013-02-28 04:52:00,
2013-02-27 22:01:00,16.0,-4.0,30.40,WNW,300,6.0,18.0,40,0.00,,,0.00,,2013-02-28 05:01:00,
2013-02-27 22:11:00,16.0,-4.0,30.40,WNW,300,6.0,18.0,40,0.00,,,0.00,,2013-02-28 05:11:00,
2013-02-27 22:22:00,16.0,-3.0,30.40,WNW,285,8.0,17.0,41,0.00,,,0.00,,2013-02-28 05:22:00,
2013-02-27 22:32:00,16.0,-2.0,30.40,WNW,284,4.0,14.0,43,0.00,,,0.00,,2013-02-28 05:32:00,
2013-02-27 22:42:00,16.0,-2.0,30.40,WNW,284,4.0,14.0,43,0.00,,,0.00,,2013-02-28 05:42:00,
2013-02-27 22:52:00,15.0,-2.0,30.40,NW,322,4.0,11.0,45,0.00,,,0.00,,2013-02-28 05:52:00,
2013-02-27 23:01:00,16.0,-1.0,30.40,NW,318,8.0,21.0,46,0.00,,,0.00,,2013-02-28 06:01:00,
2013-02-27 23:11:00,16.0,-1.0,30.40,NW,318,8.0,21.0,46,0.00,,,0.00,,2013-02-28 06:11:00,
2013-02-27 23:22:00,16.0,-1.0,30.40,WNW,302,4.0,12.0,46,0.00,,,0.00,,2013-02-28 06:22:00,
2013-02-27 23:32:00,16.0,-1.0,30.40,WNW,289,6.0,13.0,46,0.00,,,0.00,,2013-02-28 06:32:00,
2013-02-27 23:42:00,16.0,-1.0,30.40,WNW,289,6.0,13.0,46,0.00,,,0.00,,2013-02-28 06:42:00,
2013-02-27 23:51:00,15.0,-2.0,30.39,WNW,293,4.0,9.0,46,0.00,,,0.00,,2013-02-28 06:51:00,